[[{"header":{"parameterUnit":"m.s-1","parameterCategory":1,"la1":30.2991,"la2":30.254,"lo1":-89.0895,"lo2":-89.0444,"dy":0.0017,"dx":0.0017,"nx":28,"ny":28,"refTime":"2024-02-29T03:00:00:Z","depth":0,"parameterNumber":2,"parameterNumberName":"U-component_of_WINDS"},"data":[0,0,0,0,0,0,0,0,0,0,0,0,0,0,0,0,0,0,0,0,0,0,0,0,0,0,0,0,0,0,0,0,0,0,0,0,0,0,0,0,0,0,0,0,0,0,0,0,0,0,0,0,0,0,0,0,0,0,-5.6675,-5.6675,0,-5.6703,-5.6703,-5.6703,-5.6581,-5.6578,-5.6574,-5.6571,-5.6598,-5.6602,-5.6606,0,0,0,0,0,0,0,0,0,0,0,0,0,-5.6514,-5.6518,-5.6675,-5.6675,-5.6675,-5.6702,-5.6703,-5.6703,-5.6582,-5.6578,-5.6573,-5.6569,-5.6596,-5.6601,-5.6606,0,0,0,0,0,0,0,0,0,0,0,0,0,-5.6567,-5.6519,-5.6675,-5.6618,-5.6613,-5.6702,-5.6703,-5.6703,-5.6583,-5.6578,-5.6572,-5.6567,-5.6595,-5.6601,-5.6607,-5.6751,0,0,-5.6625,-5.6628,0,0,0,0,0,0,0,0,-5.6564,-5.6573,-5.6626,-5.6622,-5.6617,-5.6633,-5.6656,-5.6719,-5.6584,-5.6594,-5.6571,-5.6565,-5.6614,-5.6618,-5.6635,-5.6752,-5.6753,-5.6626,-5.6629,-5.6632,-5.6634,0,0,0,0,0,0,0,-5.6561,-5.6571,-5.6686,-5.6627,-5.6622,-5.6591,-5.6592,-5.6667,-5.6634,-5.6593,-5.6584,-5.6589,-5.661,-5.6629,-5.6634,-5.6754,-5.6626,-5.6631,-5.6635,-5.6637,-5.6989,-5.6995,0,0,0,0,0,0,-5.6565,-5.6569,-5.6685,-5.6686,-5.6577,-5.6598,-5.66,-5.6633,-5.6632,-5.6627,-5.6594,-5.6584,-5.6622,-5.6628,-5.6635,-5.6803,-5.6632,-5.6638,-5.6641,-5.6983,-5.699,-5.6997,0,0,0,0,0,0,-5.6562,-5.6576,-5.6684,-5.6625,-5.6637,-5.6606,-5.6645,-5.6637,-5.6655,-5.6633,-5.6626,-5.662,-5.6618,-5.6626,-5.6723,-5.6802,-5.664,-5.6646,-5.6977,-5.6986,-5.6993,-5.714,0,0,0,0,0,0,-5.6558,-5.6576,-5.6631,-5.6628,-5.664,-5.6772,-5.665,-5.6641,-5.6666,-5.6653,-5.6656,-5.6651,-5.6614,-5.6714,-5.6729,-5.6807,-5.6651,-5.6969,-5.6981,-5.6991,-5.7128,-5.7153,-5.7174,0,0,0,0,0,-5.6552,-5.6671,-5.6635,-5.6649,-5.6709,-5.6777,-5.6784,-5.674,-5.6673,-5.6728,-5.6713,-5.6651,-5.6791,-5.6725,-5.674,-5.6822,-5.6964,-5.6977,-5.699,-5.7118,-5.7148,-5.7173,0,0,0,0,0,0,-5.6685,-5.667,-5.6629,-5.675,-5.6766,-5.6756,-5.6824,-5.6773,-5.6808,-5.6794,-5.6737,-5.6738,-5.6844,-5.6843,-5.677,-5.6961,-5.6866,-5.6883,-5.6958,-5.6987,-5.7009,-5.7007,-5.6656,0,0,0,0,0,-5.6728,-5.6786,-5.6769,-5.6878,-5.6888,-5.6855,-5.6883,-5.6848,-5.6861,-5.6867,-5.6859,-5.6874,-5.6921,-5.6954,-5.6996,-5.7127,-5.7126,-5.7191,-5.7214,-5.7233,-5.7248,-5.7316,-5.7344,-5.7039,-5.7039,-5.7038,0,0,-5.6818,-5.6817,-5.6857,-5.6904,-5.6912,-5.6972,-5.6861,-5.6929,-5.6973,-5.6877,-5.6967,-5.6963,-5.6975,-5.709,-5.7139,-5.7091,-5.7331,-5.7249,-5.7264,-5.7269,-5.7332,-5.7361,-5.7387,-5.7048,-5.7046,-5.7045,0,0,-5.7013,-5.7018,-5.7109,-5.7119,-5.7132,-5.7109,-5.7132,-5.713,-5.7123,-5.7213,-5.7142,-5.7192,-5.7275,-5.7287,-5.7304,-5.7502,-5.7445,-5.7518,-5.7637,-5.7704,-5.7728,-5.7749,-5.7819,-5.7845,-5.7532,-5.7533,-5.7533,0,-5.7123,-5.7211,-5.7162,-5.7235,-5.7257,-5.7173,-5.7264,-5.7276,-5.7303,-5.732,-5.7266,-5.7367,-5.737,-5.7485,-5.7534,-5.7551,-5.7573,-5.7517,-5.7729,-5.7749,-5.7768,-5.7834,-5.7861,-5.7541,-5.754,-5.754,-5.7539,0,-5.7345,-5.7407,-5.7478,-5.7507,-5.7537,-5.7619,-5.7581,-5.7618,-5.758,-5.7562,-5.7654,-5.7655,-5.7695,-5.772,-5.7683,-5.783,-5.78,-5.7738,-5.7642,-5.7807,-5.7868,-5.7893,-5.7554,-5.7551,-5.7548,-5.7546,0,0,-5.7624,-5.7623,-5.765,-5.7662,-5.767,-5.7716,-5.7794,-5.7834,-5.7866,-5.7887,-5.7949,-5.8021,-5.7964,-5.7983,-5.7947,-5.8006,-5.8163,-5.7937,-5.7936,-5.7978,-5.8323,-5.8369,-5.84,-5.8125,-5.813,-5.8133,-5.8322,0,-5.7814,-5.7947,-5.7904,-5.8038,-5.8094,-5.8015,-5.8082,-5.8094,-5.808,-5.8125,-5.8108,-5.816,-5.8081,-5.8092,-5.8147,-5.8132,-5.8231,-5.8118,-5.8182,-5.8185,-5.8181,-5.8432,-5.8481,-5.8659,-5.8346,-5.835,-5.8353,0,-5.8054,-5.8085,-5.8224,-5.8222,-5.8244,-5.8305,-5.8338,-5.8382,-5.8393,-5.8379,-5.8401,-5.8352,-5.8426,-5.833,-5.8431,-5.8355,-5.8379,-5.8376,-5.8381,-5.8385,-5.8279,-5.8442,-5.8714,-5.8741,-5.839,-5.8387,-5.8384,0,-5.8243,-5.8319,-5.8412,-5.8424,-5.8424,-5.8469,-5.8471,-5.8477,-5.8503,-5.8532,-5.8548,-5.8585,-5.8605,-5.8634,-5.8596,-5.853,-5.8703,-5.8604,-5.8692,-5.8693,-5.8732,-5.873,-5.9012,-5.8749,-5.8748,-5.8748,-5.8747,0,-5.8459,-5.8548,-5.8496,-5.8554,-5.865,-5.86,-5.8696,-5.8689,-5.8695,-5.8749,-5.8683,-5.8734,-5.8681,-5.8728,-5.8698,-5.8786,-5.8796,-5.8786,-5.8777,-5.8792,-5.8793,-5.8806,-5.8793,-5.8755,-5.8753,-5.8752,-5.8751,0,-5.8686,-5.8656,-5.8752,-5.8744,-5.8744,-5.8815,-5.8808,-5.886,-5.8841,-5.891,-5.8923,-5.8893,-5.8944,-5.8909,-5.8961,-5.8941,-5.9056,-5.903,-5.9053,-5.9045,-5.9136,-5.9127,-5.9435,-5.9473,-5.9186,-5.9189,-5.9191,0,-5.8827,-5.8893,-5.8892,-5.8923,-5.893,-5.8981,-5.9008,-5.8961,-5.8991,-5.9008,-5.9058,-5.9104,-5.9138,-5.9224,-5.9206,-5.9245,-5.9219,-5.9324,-5.9224,-5.9237,-5.9219,-5.9216,-5.9222,-5.9344,-5.9347,-5.935,-5.9352,0,-5.9078,-5.906,-5.9101,-5.9137,-5.9171,-5.9197,-5.9217,-5.9246,-5.9199,-5.9236,-5.9288,-5.9314,-5.9366,-5.9412,-5.9444,-5.9445,-5.9391,-5.9384,-5.9406,-5.9422,-5.9432,-5.9427,-5.9107,-5.9377,-5.9375,-5.9373,-5.9372,-5.9371,-5.9266,-5.932,-5.9328,-5.9376,-5.9386,-5.9407,-5.9455,-5.9442,-5.9484,-5.9524,-5.9493,-5.9555,-5.9563,-5.96,-5.9608,-5.9655,-5.9612,-5.9644,-5.9653,-5.9661,-5.9674,-5.9425,-5.966,-5.966,-5.9659,-5.9658,-5.9658,0,-5.9513,-5.9514,-5.9559,-5.959,-5.9627,-5.9573,-5.9593,-5.9627,-5.9682,-5.9695,-5.973,-5.9789,-5.9833,-5.9819,-5.9858,-5.9898,-5.9874,-5.991,-5.9906,-5.9907,-5.971,-5.9687,-5.9928,-5.9928,-5.9928,-5.9928,-5.9928,-5.9928,-5.9647,-5.9736,-5.9718,-5.9812,-5.9811,-5.9872,-5.9887,-5.9906,-5.9915,-5.9984,-6.0021,-6.0011,-6.0013,-6.0051,-6.0089,-6.0083,-6.01,-6.0145,-6.0131,-5.9948,-5.9921,-5.9895,-5.9873,-6.015,-6.015,-6.0323,-6.0325,-6.0326]},{"header":{"parameterUnit":"m.s-1","parameterCategory":1,"la1":30.2991,"la2":30.254,"lo1":-89.0895,"lo2":-89.0444,"dy":0.0017,"dx":0.0017,"nx":28,"ny":28,"refTime":"2024-02-29T03:00:00:Z","depth":0,"parameterNumber":3,"parameterNumberName":"V-component_of_WINDS"},"data":[0,0,0,0,0,0,0,0,0,0,0,0,0,0,0,0,0,0,0,0,0,0,0,0,0,0,0,0,0,0,0,0,0,0,0,0,0,0,0,0,0,0,0,0,0,0,0,0,0,0,0,0,0,0,0,0,0,0,-1.6975,-1.6976,0,-1.7005,-1.7005,-1.7006,-1.6998,-1.6997,-1.6997,-1.6996,-1.7027,-1.7029,-1.703,0,0,0,0,0,0,0,0,0,0,0,0,0,-1.6911,-1.6913,-1.6975,-1.6976,-1.6976,-1.7005,-1.7005,-1.7006,-1.6998,-1.6997,-1.6997,-1.6996,-1.7027,-1.7028,-1.703,0,0,0,0,0,0,0,0,0,0,0,0,0,-1.694,-1.6913,-1.6975,-1.6976,-1.6976,-1.7005,-1.7005,-1.7006,-1.6998,-1.6997,-1.6996,-1.6996,-1.7026,-1.7028,-1.703,-1.7061,0,0,-1.7037,-1.7038,0,0,0,0,0,0,0,0,-1.6938,-1.6942,-1.6975,-1.6976,-1.6976,-1.6997,-1.6994,-1.7024,-1.6998,-1.699,-1.6996,-1.6995,-1.7018,-1.7021,-1.7028,-1.7062,-1.7064,-1.7037,-1.7038,-1.7039,-1.704,0,0,0,0,0,0,0,-1.6936,-1.6941,-1.6987,-1.6976,-1.6976,-1.6974,-1.6977,-1.7,-1.7009,-1.6991,-1.699,-1.6994,-1.7018,-1.7026,-1.7029,-1.7064,-1.7037,-1.7039,-1.704,-1.7041,-1.7124,-1.7125,0,0,0,0,0,0,-1.6934,-1.6939,-1.6986,-1.6988,-1.6955,-1.6976,-1.698,-1.6991,-1.7008,-1.701,-1.6994,-1.6993,-1.7023,-1.7026,-1.703,-1.7066,-1.7039,-1.7041,-1.7042,-1.7123,-1.7124,-1.7125,0,0,0,0,0,0,-1.6933,-1.6938,-1.6985,-1.6964,-1.6969,-1.6978,-1.6991,-1.6992,-1.7,-1.7011,-1.7013,-1.7001,-1.7023,-1.7027,-1.7053,-1.7067,-1.7042,-1.7044,-1.7122,-1.7123,-1.7125,-1.7139,0,0,0,0,0,0,-1.6931,-1.6938,-1.695,-1.6964,-1.6971,-1.7008,-1.6992,-1.6993,-1.7004,-1.7003,-1.7018,-1.702,-1.7022,-1.705,-1.7055,-1.7069,-1.7045,-1.712,-1.7122,-1.7124,-1.7137,-1.7141,-1.7144,0,0,0,0,0,-1.6929,-1.6953,-1.695,-1.6956,-1.6986,-1.7008,-1.7012,-1.7015,-1.7005,-1.7017,-1.7024,-1.7019,-1.7065,-1.7053,-1.7058,-1.7074,-1.712,-1.7122,-1.7124,-1.7136,-1.714,-1.7144,0,0,0,0,0,0,-1.6941,-1.6955,-1.6952,-1.6982,-1.6994,-1.7007,-1.7022,-1.7019,-1.7034,-1.7033,-1.7035,-1.7038,-1.7065,-1.7072,-1.7058,-1.7104,-1.7091,-1.7094,-1.7098,-1.7102,-1.7105,-1.7103,-1.7047,0,0,0,0,0,-1.6946,-1.6964,-1.6976,-1.7001,-1.7007,-1.7013,-1.7023,-1.7024,-1.7037,-1.7042,-1.7051,-1.7063,-1.708,-1.7092,-1.7108,-1.7138,-1.7141,-1.7152,-1.7155,-1.7157,-1.716,-1.7176,-1.718,-1.7132,-1.7132,-1.7132,0,0,-1.6959,-1.6969,-1.698,-1.7003,-1.7013,-1.703,-1.7018,-1.7037,-1.705,-1.7045,-1.707,-1.7077,-1.7091,-1.7119,-1.7132,-1.7126,-1.7174,-1.716,-1.7162,-1.7164,-1.7179,-1.7183,-1.7187,-1.7134,-1.7133,-1.7133,0,0,-1.6991,-1.7001,-1.7022,-1.7032,-1.7046,-1.705,-1.7055,-1.7069,-1.7073,-1.7098,-1.7094,-1.711,-1.7139,-1.7149,-1.7158,-1.7193,-1.7189,-1.7198,-1.7215,-1.723,-1.7234,-1.7237,-1.7249,-1.7253,-1.7201,-1.7201,-1.7201,0,-1.7005,-1.7032,-1.7034,-1.7053,-1.7063,-1.7059,-1.708,-1.7089,-1.7108,-1.7115,-1.7108,-1.7145,-1.7154,-1.7184,-1.7192,-1.72,-1.7205,-1.7196,-1.7233,-1.7237,-1.724,-1.7251,-1.7256,-1.7202,-1.7202,-1.7202,-1.7202,0,-1.7048,-1.7066,-1.7082,-1.71,-1.7111,-1.7132,-1.7137,-1.7148,-1.7148,-1.7152,-1.7177,-1.7188,-1.7206,-1.7214,-1.7214,-1.7243,-1.7239,-1.7233,-1.722,-1.7245,-1.7256,-1.726,-1.7204,-1.7203,-1.7203,-1.7203,0,0,-1.7088,-1.7106,-1.7112,-1.712,-1.7135,-1.7149,-1.7169,-1.7186,-1.7196,-1.7209,-1.7226,-1.725,-1.7244,-1.7255,-1.7256,-1.7269,-1.7295,-1.7261,-1.7261,-1.7266,-1.7328,-1.7332,-1.7337,-1.7293,-1.7294,-1.7294,-1.7326,0,-1.7121,-1.7156,-1.7158,-1.7189,-1.7206,-1.7202,-1.7219,-1.723,-1.7235,-1.725,-1.7255,-1.7272,-1.7264,-1.727,-1.7283,-1.7289,-1.7307,-1.7287,-1.7308,-1.7308,-1.7304,-1.7342,-1.7347,-1.7377,-1.733,-1.7331,-1.7332,0,-1.7164,-1.7178,-1.7211,-1.7223,-1.723,-1.7245,-1.7261,-1.7275,-1.7288,-1.729,-1.7301,-1.73,-1.732,-1.7307,-1.7334,-1.732,-1.7329,-1.7334,-1.7335,-1.7336,-1.7321,-1.7344,-1.7386,-1.739,-1.7338,-1.7338,-1.7337,0,-1.7189,-1.7216,-1.7239,-1.7246,-1.7261,-1.7272,-1.7278,-1.729,-1.73,-1.7313,-1.732,-1.7336,-1.7345,-1.7357,-1.736,-1.735,-1.7387,-1.7375,-1.739,-1.739,-1.7398,-1.7397,-1.7441,-1.7404,-1.7404,-1.7404,-1.7404,0,-1.7225,-1.7245,-1.7251,-1.7265,-1.7287,-1.7289,-1.7311,-1.7317,-1.7327,-1.7342,-1.734,-1.7354,-1.7357,-1.7372,-1.7375,-1.7397,-1.7401,-1.7404,-1.7404,-1.7403,-1.7403,-1.7409,-1.7407,-1.7405,-1.7405,-1.7405,-1.7404,0,-1.7257,-1.7261,-1.7286,-1.7298,-1.7301,-1.7317,-1.7327,-1.734,-1.7345,-1.7364,-1.7368,-1.7375,-1.7393,-1.7397,-1.7418,-1.742,-1.7445,-1.7444,-1.7441,-1.7441,-1.7455,-1.7454,-1.7504,-1.751,-1.747,-1.7471,-1.7471,0,-1.7279,-1.7295,-1.7308,-1.7317,-1.7324,-1.734,-1.735,-1.7353,-1.7363,-1.7378,-1.7389,-1.7406,-1.742,-1.7448,-1.7454,-1.747,-1.7469,-1.7485,-1.7471,-1.747,-1.7468,-1.7467,-1.7468,-1.7488,-1.7488,-1.7489,-1.7489,0,-1.7318,-1.7319,-1.7334,-1.7349,-1.7361,-1.7373,-1.7384,-1.7392,-1.7396,-1.7408,-1.7425,-1.7436,-1.7457,-1.7473,-1.7489,-1.7496,-1.7493,-1.7493,-1.7498,-1.7497,-1.7494,-1.7495,-1.7448,-1.7492,-1.7492,-1.7492,-1.7491,-1.7491,-1.7345,-1.7359,-1.737,-1.7385,-1.7394,-1.7405,-1.7418,-1.7423,-1.7438,-1.7455,-1.7455,-1.7474,-1.7485,-1.7506,-1.7514,-1.7528,-1.7523,-1.753,-1.7531,-1.7533,-1.7533,-1.7492,-1.7531,-1.7531,-1.7531,-1.7531,-1.7531,0,-1.7384,-1.739,-1.7405,-1.7421,-1.7433,-1.7429,-1.7441,-1.7452,-1.7468,-1.7479,-1.7492,-1.7512,-1.7528,-1.7536,-1.7551,-1.7562,-1.7561,-1.7566,-1.7565,-1.7566,-1.7537,-1.7532,-1.7566,-1.7566,-1.7566,-1.7566,-1.7566,-1.7566,-1.7405,-1.7426,-1.7429,-1.7455,-1.7461,-1.7479,-1.7487,-1.7496,-1.7505,-1.7526,-1.7539,-1.7544,-1.7554,-1.757,-1.7585,-1.7586,-1.7592,-1.7598,-1.7599,-1.7572,-1.7568,-1.7565,-1.7559,-1.7599,-1.7599,-1.7626,-1.7626,-1.7627]}]]